Temp
19 19 20 20 20 21 21 21 22 22 23 23 23 24 24 24 24 25 26 27 27 26 25 25 25 22 22 22 22 22 19 21 23 23 24 26 26 27 27 28 27 26 25 25 23
18 19 19 20 20 21 21 21 22 22 23 23 23 24 24 24 25 26 27 27 26 26 25 26 25 22 22 22 22 20 18 21 22 23 24 27 27 28 25 26 25 26 27 26 23
18 19 19 20 20 21 21 21 21 22 22 22 23 23 24 24 25 26 27 27 26 26 25 25 24 23 22 23 24 22 21 23 23 25 26 24 25 27 26 25 27 26 25 25 22
18 19 19 20 20 21 21 21 21 22 22 23 23 23 23 24 25 26 27 27 27 25 25 25 24 23 23 23 25 24 25 26 26 26 24 24 25 26 26 27 29 28 28 26 22
18 19 19 20 20 21 21 21 21 21 22 22 22 22 23 23 26 26 26 26 27 26 25 25 24 24 24 24 25 25 26 27 28 28 26 26 25 25 26 28 28 27 26 25 24
18 19 19 20 21 21 22 21 22 22 22 22 22 22 22 22 26 26 26 26 26 26 26 25 25 26 25 25 25 27 26 26 27 27 27 24 25 25 29 30 29 26 25 23 21
18 19 20 20 21 22 22 22 23 23 23 22 22 22 22 26 26 26 26 26 26 26 26 26 26 25 25 25 26 27 25 24 26 28 26 27 26 26 31 29 27 25 24 23 24
19 19 20 21 22 22 22 23 24 23 23 22 21 22 25 26 26 26 26 26 26 26 26 26 26 26 25 26 25 25 22 22 24 26 27 27 24 26 31 29 28 25 24 23 25
19 20 20 21 22 22 23 23 23 23 22 23 22 21 25 26 27 27 27 26 26 27 26 26 25 26 25 22 20 19 21 22 23 25 26 27 24 26 29 29 28 25 24 24 24
19 20 20 21 21 22 23 23 23 22 22 23 22 22 26 26 27 27 27 27 27 27 26 25 25 21 18 19 21 22 22 22 22 24 24 24 23 24 27 28 28 27 24 24 24
19 20 21 21 21 21 23 23 22 22 22 22 22 22 25 26 27 27 27 27 27 27 23 24 21 20 21 20 22 22 21 21 22 24 24 23 22 25 26 27 28 27 25 24 24
19 20 21 21 21 21 21 20 18 19 19 23 23 22 26 26 25 27 27 27 26 24 24 21 21 22 23 22 21 21 21 21 22 23 21 23 25 24 24 26 27 27 25 25 25
19 19 20 21 22 21 21 20 20 20 18 22 24 25 27 26 27 28 28 27 25 24 23 21 24 25 24 24 23 21 21 21 22 24 24 25 22 22 24 25 26 26 27 26 26
18 19 20 21 21 21 21 20 20 20 16 23 25 27 27 27 27 28 28 28 25 25 23 22 24 25 24 24 23 24 23 24 25 23 22 23 21 22 19 21 21 22 23 24 25
18 18 19 20 20 20 21 21 21 21 22 26 27 28 28 27 27 28 29 28 26 26 25 24 25 25 24 25 26 24 25 25 25 21 22 22 19 21 17 19 19 19 20 22 24
18 18 19 20 21 20 21 21 21 19 23 26 27 26 26 27 27 28 28 28 27 26 24 23 26 26 26 26 26 25 24 20 17 17 19 21 20 19 18 19 17 19 18 18 19
19 19 20 20 20 21 21 21 18 20 24 24 25 24 25 25 26 26 26 25 23 23 22 22 25 25 25 24 23 21 19 18 20 18 19 19 20 19 20 19 18 17 18 19 20
19 20 21 21 21 21 21 17 22 23 23 25 24 24 25 23 24 24 25 23 23 22 20 21 22 25 25 24 24 22 19 18 20 18 19 19 20 20 20 20 19 19 18 19 20
19 21 21 21 21 21 21 17 20 22 22 22 22 22 21 22 24 22 22 22 22 22 22 21 22 23 24 25 23 22 20 20 18 17 18 18 21 21 19 19 19 18 18 19 19
18 20 20 20 21 20 16 16 18 21 22 21 23 22 22 22 22 20 22 23 24 23 21 22 21 21 23 24 22 23 21 19 15 19 20 18 20 19 20 19 17 16 16 18 19
17 18 20 20 20 20 15 15 18 22 22 22 22 23 22 22 22 22 23 24 23 24 22 20 19 21 21 21 21 18 19 18 15 15 17 16 17 18 19 19 17 16 17 16 17
15 12 19 19 18 11 14 18 21 21 22 20 21 22 22 22 21 22 23 23 24 24 23 20 16 18 21 20 19 20 20 16 15 16 15 15 15 17 18 17 17 17 17 16 15
12 14 19 19 14 12 14 17 19 20 20 20 21 22 22 22 22 21 22 23 24 20 21 21 16 16 17 18 18 21 20 19 14 12 16 15 16 17 16 16 17 16 17 17 16
12 9 17 17 16 14 14 16 17 21 20 20 20 21 20 21 20 21 20 22 22 21 20 19 14 16 15 18 18 19 19 20 16 14 15 15 17 16 16 15 15 17 17 17 17
11 10 12 10 12 12 14 15 17 17 19 20 19 19 19 18 17 18 18 18 20 19 20 17 18 16 16 17 18 19 19 19 18 16 16 18 16 17 16 14 15 15 15 16 16
11 11 12 12 12 13 13 14 15 16 17 17 19 18 17 18 18 18 18 18 18 17 19 14 16 17 17 18 19 18 19 18 18 18 17 17 16 16 16 15 15 15 15 15 16
9 10 11 11 10 12 12 13 14 14 17 18 18 18 19 18 20 21 21 20 18 18 16 15 14 14 16 17 16 15 17 17 17 16 16 15 16 14 14 14 15 15 14 14 15
Height
1518 1514 1511 1508 1505 1502 1500 1497 1495 1493 1491 1489 1489 1489 1488 1488 1488 1487 1486 1490 1489 1490 1491 1493 1494 1496 1498 1499 1499 1498 1507 1513 1501 1501 1494 1487 1488 1485 1482 1473 1476 1480 1481 1484 1490
1518 1514 1511 1507 1504 1501 1498 1495 1492 1490 1488 1487 1486 1485 1485 1485 1484 1483 1485 1484 1486 1488 1490 1492 1492 1495 1498 1498 1499 1499 1510 1504 1491 1486 1484 1484 1485 1486 1484 1476 1476 1474 1477 1479 1485
1518 1514 1510 1506 1502 1499 1496 1493 1490 1488 1486 1484 1483 1483 1482 1482 1482 1480 1480 1481 1483 1487 1489 1491 1492 1495 1497 1497 1495 1494 1500 1492 1487 1483 1481 1480 1480 1484 1482 1476 1471 1473 1476 1478 1483
1517 1513 1509 1504 1500 1497 1494 1490 1487 1485 1483 1482 1480 1480 1480 1481 1485 1480 1481 1481 1483 1486 1488 1489 1492 1494 1494 1494 1492 1494 1487 1486 1483 1481 1483 1480 1478 1475 1477 1464 1469 1469 1472 1470 1475
1516 1512 1507 1503 1499 1495 1491 1488 1485 1483 1481 1479 1478 1478 1479 1480 1479 1480 1481 1482 1483 1484 1486 1488 1489 1491 1491 1489 1489 1488 1483 1481 1481 1479 1478 1477 1475 1472 1467 1466 1464 1466 1467 1467 1471
1516 1511 1506 1501 1497 1493 1489 1486 1484 1481 1478 1477 1477 1478 1479 1480 1478 1479 1481 1482 1482 1483 1485 1486 1488 1489 1489 1489 1489 1483 1480 1477 1476 1474 1474 1474 1470 1472 1461 1458 1454 1457 1461 1469 1484
1514 1510 1505 1500 1495 1491 1488 1483 1480 1479 1477 1476 1476 1477 1478 1478 1477 1479 1481 1482 1482 1483 1483 1484 1487 1489 1489 1487 1485 1483 1484 1477 1471 1469 1470 1468 1470 1466 1457 1457 1455 1456 1462 1469 1465
1513 1509 1504 1499 1494 1490 1486 1481 1479 1479 1477 1476 1476 1476 1475 1476 1477 1478 1478 1480 1481 1482 1483 1484 1486 1487 1487 1486 1485 1487 1488 1497 1473 1470 1468 1467 1480 1459 1455 1456 1452 1454 1458 1461 1459
1512 1508 1503 1498 1493 1490 1485 1481 1480 1479 1478 1477 1477 1477 1474 1476 1476 1476 1477 1478 1479 1480 1481 1484 1486 1486 1486 1491 1500 1500 1506 1497 1484 1468 1471 1471 1475 1454 1453 1453 1450 1450 1453 1456 1457
1511 1507 1503 1498 1493 1490 1485 1481 1479 1479 1478 1477 1476 1479 1475 1475 1475 1475 1476 1478 1478 1479 1481 1483 1484 1487 1492 1499 1516 1504 1502 1497 1495 1472 1470 1472 1472 1456 1451 1451 1449 1447 1448 1451 1455
1511 1506 1503 1499 1495 1491 1487 1482 1483 1481 1477 1476 1477 1476 1473 1474 1473 1474 1474 1476 1477 1478 1483 1482 1491 1498 1488 1488 1486 1489 1496 1499 1486 1472 1478 1473 1471 1457 1451 1450 1446 1443 1444 1448 1450
1510 1506 1503 1500 1497 1494 1491 1489 1494 1494 1482 1473 1471 1471 1470 1473 1474 1472 1474 1476 1476 1481 1480 1488 1493 1478 1478 1480 1484 1488 1495 1494 1483 1470 1478 1472 1465 1455 1450 1449 1445 1442 1445 1447 1447
1510 1506 1502 1499 1496 1496 1494 1494 1493 1492 1489 1473 1470 1469 1470 1472 1471 1469 1471 1473 1474 1478 1480 1490 1478 1470 1475 1476 1480 1484 1490 1486 1486 1471 1470 1469 1475 1465 1450 1453 1455 1452 1449 1448 1449
1510 1506 1502 1499 1499 1495 1495 1494 1492 1491 1499 1478 1471 1469 1469 1469 1469 1467 1468 1472 1472 1476 1477 1482 1471 1471 1471 1473 1473 1483 1468 1469 1473 1481 1497 1474 1508 1476 1468 1460 1466 1462 1457 1455 1452
1509 1505 1501 1498 1497 1495 1495 1492 1491 1491 1515 1473 1470 1469 1468 1469 1468 1466 1467 1469 1471 1471 1474 1479 1472 1472 1474 1469 1463 1473 1463 1467 1467 1482 1484 1485 1502 1484 1476 1472 1472 1474 1467 1460 1456
1508 1504 1500 1498 1496 1494 1492 1490 1490 1503 1506 1476 1470 1470 1470 1468 1467 1465 1466 1468 1468 1469 1471 1471 1466 1467 1467 1464 1462 1461 1465 1475 1485 1492 1509 1487 1494 1494 1485 1476 1471 1469 1469 1464 1459
1506 1502 1497 1496 1494 1492 1490 1490 1504 1510 1478 1483 1477 1472 1472 1471 1465 1464 1465 1470 1478 1487 1487 1476 1468 1465 1465 1468 1463 1468 1485 1514 1510 1518 1515 1490 1494 1488 1473 1471 1470 1467 1463 1458 1455
1502 1498 1495 1493 1493 1492 1491 1493 1505 1490 1489 1477 1475 1473 1476 1473 1471 1467 1467 1476 1470 1476 1490 1494 1495 1471 1468 1472 1476 1478 1489 1514 1519 1523 1508 1487 1496 1482 1468 1469 1469 1466 1462 1458 1453
1500 1496 1493 1492 1493 1492 1492 1509 1502 1492 1489 1485 1479 1483 1485 1477 1475 1474 1478 1478 1474 1472 1489 1493 1488 1471 1469 1467 1471 1482 1493 1484 1502 1504 1508 1500 1480 1471 1466 1469 1468 1465 1461 1456 1453
1500 1496 1495 1495 1494 1493 1495 1506 1498 1490 1488 1484 1488 1484 1490 1485 1482 1483 1482 1475 1474 1473 1471 1483 1496 1479 1474 1471 1474 1478 1479 1497 1505 1513 1510 1505 1489 1489 1471 1469 1468 1464 1460 1454 1451
1502 1498 1497 1496 1496 1495 1506 1504 1494 1489 1489 1487 1485 1485 1484 1486 1483 1484 1482 1475 1473 1473 1471 1478 1490 1489 1481 1485 1487 1491 1492 1495 1502 1511 1518 1522 1505 1473 1469 1466 1466 1461 1459 1457 1452
1504 1503 1498 1498 1499 1502 1504 1498 1494 1488 1485 1482 1479 1480 1481 1483 1485 1483 1482 1477 1473 1471 1476 1478 1493 1501 1488 1479 1479 1482 1489 1498 1516 1514 1512 1514 1505 1468 1465 1465 1465 1462 1460 1456 1452
1506 1501 1498 1498 1506 1507 1500 1497 1494 1490 1486 1483 1482 1478 1477 1480 1487 1482 1479 1476 1473 1474 1479 1478 1494 1510 1502 1491 1483 1484 1485 1487 1500 1509 1506 1513 1499 1466 1466 1465 1464 1462 1458 1454 1451
1510 1508 1499 1498 1501 1502 1503 1499 1496 1489 1487 1486 1483 1479 1481 1482 1481 1483 1483 1477 1476 1476 1475 1475 1497 1500 1514 1499 1491 1490 1486 1482 1492 1510 1502 1499 1482 1471 1466 1464 1461 1459 1457 1454 1451
1512 1510 1509 1509 1503 1504 1502 1500 1498 1498 1490 1486 1484 1484 1484 1489 1489 1490 1487 1483 1479 1478 1477 1480 1493 1492 1491 1488 1486 1484 1483 1479 1484 1486 1493 1477 1478 1467 1465 1462 1458 1458 1455 1451 1447
1512 1512 1510 1508 1505 1504 1502 1502 1501 1498 1495 1491 1489 1486 1483 1487 1488 1490 1487 1487 1485 1480 1480 1483 1493 1489 1489 1480 1479 1480 1476 1475 1475 1473 1474 1472 1473 1462 1460 1458 1455 1454 1451 1449 1445
1510 1511 1511 1507 1506 1506 1505 1505 1501 1499 1492 1490 1489 1488 1486 1484 1481 1480 1480 1480 1480 1482 1484 1487 1492 1497 1492 1482 1482 1488 1473 1470 1470 1470 1472 1478 1466 1462 1457 1456 1453 1451 1450 1448 1444
Wind_Speed
22 21 20 19 19 18 17 16 16 15 14 13 12 11 11 12 13 16 17 7 5 5 7 4 9 13 12 7 4 2 4 2 4 4 5 9 3 5 13 11 21 15 19 13 31
22 21 20 20 20 19 18 17 17 16 14 12 11 11 11 11 12 16 9 11 11 10 9 5 8 16 6 6 7 3 4 8 5 4 6 7 3 5 5 7 8 22 25 15 37
23 22 22 21 21 20 19 18 16 15 13 12 11 10 9 8 8 2 3 4 16 12 8 4 5 14 5 7 7 7 5 6 14 26 27 14 17 13 4 10 23 12 16 25 40
25 25 24 23 23 21 21 18 17 15 14 12 9 8 6 3 3 5 5 7 10 13 11 8 11 6 3 4 9 3 13 12 14 16 14 10 11 8 17 34 28 22 27 33 45
26 26 25 24 24 23 20 17 17 18 12 8 5 4 2 3 4 7 5 4 3 6 8 12 17 7 3 3 6 6 5 3 11 11 15 21 17 11 18 29 30 23 35 39 44
26 27 26 25 24 22 18 17 18 15 9 6 2 1 2 2 5 9 6 7 4 3 7 12 10 10 4 3 1 7 12 15 7 8 9 8 11 7 19 15 13 28 44 37 28
26 27 27 26 24 19 17 20 17 13 9 4 2 2 4 2 6 8 5 2 2 5 7 8 9 4 3 5 6 8 6 10 16 10 6 4 6 6 23 7 10 32 37 36 44
27 27 27 26 23 16 19 19 9 9 6 5 5 1 3 6 5 6 7 6 4 3 4 4 6 5 4 3 7 4 4 4 6 4 5 3 9 11 23 8 17 29 35 42 49
28 27 27 27 20 18 21 10 7 5 6 5 5 5 1 2 5 3 2 3 3 4 5 4 5 4 2 4 5 6 3 4 9 3 4 3 14 11 23 11 9 26 36 40 47
28 27 27 27 18 19 21 6 6 3 7 6 6 4 1 3 1 3 4 3 3 2 4 7 2 2 3 4 3 3 3 3 6 9 11 15 9 12 18 7 10 18 32 37 38
28 27 25 26 15 19 19 3 11 2 19 6 9 7 14 5 5 5 2 6 5 2 2 2 3 7 11 9 7 4 5 6 9 16 1 10 7 8 10 4 4 5 20 31 37
28 28 25 24 10 11 17 11 15 11 11 17 13 19 15 14 5 3 6 6 3 3 3 5 5 11 3 6 7 7 4 10 9 12 6 8 9 7 6 4 3 6 12 24 32
27 27 25 23 9 12 7 12 9 11 3 11 4 5 2 4 5 5 12 6 4 2 4 6 10 4 3 7 4 4 6 6 10 3 1 2 9 8 11 8 23 11 11 10 9
26 26 25 23 7 16 4 12 8 8 4 5 4 2 4 6 3 6 10 5 2 5 4 5 4 2 6 6 6 1 7 7 6 3 4 3 3 6 9 9 17 20 21 16 14
25 24 23 21 19 15 10 13 7 3 3 2 3 2 2 3 4 1 12 12 4 4 4 7 3 7 6 5 4 7 1 3 3 4 3 4 5 7 6 9 7 7 8 8 6
23 22 23 20 18 12 13 10 2 4 1 3 1 4 2 2 3 2 6 8 1 1 1 7 3 3 3 2 4 3 5 7 5 3 4 4 4 5 3 3 7 5 9 4 6
23 21 19 17 14 12 12 6 5 2 4 5 2 4 1 4 4 5 5 3 5 2 4 6 1 3 3 7 7 12 7 4 4 5 5 4 2 7 3 3 3 8 13 14 14
24 21 16 9 5 7 9 4 1 1 4 3 4 3 3 7 3 5 2 2 1 4 2 3 6 3 6 4 2 4 5 4 4 3 6 2 4 4 6 2 5 8 13 14 15
24 19 10 1 3 7 4 3 4 2 4 6 7 5 5 4 2 8 4 2 4 2 6 2 5 3 4 2 4 5 4 4 3 3 1 3 2 6 2 1 3 10 14 15 16
25 16 7 5 5 8 4 3 2 2 7 5 1 1 4 5 5 7 5 4 2 3 3 2 2 3 5 5 6 3 3 4 4 3 3 4 3 4 5 2 1 7 12 15 14
20 9 2 2 3 4 3 4 4 11 14 2 3 2 2 2 3 3 3 1 6 5 5 4 3 5 2 2 4 5 4 4 3 3 2 1 6 4 2 3 5 7 10 13 13
10 4 3 3 3 2 1 2 9 9 14 5 5 4 2 2 1 2 2 2 13 2 2 2 4 2 4 2 5 1 5 4 4 6 2 3 6 4 3 2 4 10 16 11 11
17 7 1 6 1 3 6 5 2 4 5 6 4 2 1 3 2 3 1 6 10 6 2 1 2 3 8 6 6 4 1 3 3 3 4 3 6 3 3 5 7 12 16 13 12
7 4 4 5 6 3 4 4 5 10 4 9 4 6 4 2 1 3 4 3 6 5 12 6 3 5 5 6 2 3 4 2 5 3 4 6 7 5 6 6 8 12 13 16 15
2 3 4 3 4 4 2 2 4 7 9 12 5 4 2 4 5 3 5 6 3 6 4 4 2 5 6 7 4 5 8 4 3 7 5 7 5 5 5 8 11 11 13 16 18
2 3 6 7 7 5 3 4 5 4 3 6 3 5 4 4 3 1 2 1 4 5 3 3 3 2 5 6 7 6 9 6 4 3 4 4 6 3 11 10 11 12 12 11 10
3 3 3 4 4 2 1 3 5 8 6 7 6 3 3 5 7 7 6 7 7 2 2 3 5 3 10 5 5 7 6 5 4 4 4 4 6 5 7 7 13 13 10 11 8
Wind_Direction
4 1 357 353 349 345 341 335 327 322 315 309 302 294 285 279 277 274 271 267 255 198 167 164 158 147 161 180 212 81 75 224 219 158 236 139 228 153 163 190 207 203 250 281 185
4 359 355 352 348 344 341 336 328 323 316 307 300 296 291 293 287 279 274 244 229 217 181 153 174 171 178 197 200 126 135 220 224 219 244 159 137 185 259 242 225 234 243 244 185
4 360 356 352 348 346 342 335 330 326 319 311 304 294 290 301 312 100 88 218 211 200 196 167 167 176 205 180 207 186 203 192 258 254 257 284 285 248 264 279 257 220 165 188 184
4 0 355 352 348 345 341 339 335 330 320 310 300 292 279 275 129 119 74 79 148 179 199 189 170 179 215 222 201 217 240 239 264 267 254 248 261 237 223 246 267 262 217 192 196
3 1 356 351 347 344 343 340 337 334 329 318 295 284 261 241 233 141 73 43 137 171 197 189 185 190 213 241 317 219 264 242 259 274 246 257 264 256 243 272 263 255 202 197 194
0 360 356 351 348 344 344 336 332 338 333 329 315 282 209 251 115 147 120 57 73 248 216 191 202 214 275 277 244 292 310 300 289 278 240 200 257 215 284 295 248 203 193 186 169
358 358 357 351 348 348 344 330 333 346 354 347 345 286 243 167 144 163 165 143 6 347 238 215 205 233 332 304 322 317 346 327 303 297 306 228 314 248 318 292 204 194 188 178 193
356 356 358 352 350 356 345 338 344 348 6 28 29 327 222 149 202 224 243 224 215 297 310 195 207 265 232 269 336 9 34 9 275 306 292 83 283 285 316 320 228 197 187 190 204
354 354 357 355 354 359 351 356 350 360 27 352 340 352 125 175 155 140 137 226 214 277 252 258 304 227 134 84 6 0 248 281 311 172 13 28 295 279 318 328 290 204 193 198 210
351 352 357 357 356 359 359 9 344 344 352 325 292 329 95 350 244 225 152 169 202 182 213 244 206 83 42 82 232 213 237 254 263 298 349 314 273 292 320 324 313 221 199 201 211
348 349 354 358 0 3 9 22 13 334 325 261 274 274 283 274 293 233 192 171 191 176 130 11 94 224 228 201 209 197 191 235 271 282 230 268 278 288 308 316 333 242 211 198 208
345 344 349 357 356 24 26 61 30 324 307 306 284 258 258 278 301 305 174 178 169 187 140 21 250 245 240 210 209 205 230 265 278 263 146 271 290 288 285 329 296 254 218 215 220
341 340 342 353 348 353 4 26 353 341 303 299 300 267 257 206 223 249 195 193 188 221 181 163 247 317 242 268 252 208 181 239 218 289 203 4 328 352 330 72 42 22 50 45 254
338 336 337 346 355 346 352 345 318 319 49 281 284 253 209 192 248 239 226 197 173 211 191 212 271 240 282 234 149 311 210 212 226 73 298 68 277 340 330 336 45 50 44 32 32
337 335 331 335 333 338 320 333 312 319 40 192 238 319 214 205 326 283 210 208 237 241 88 252 293 337 350 283 175 248 242 277 66 96 37 7 88 261 1 349 24 31 54 37 2
338 334 325 326 333 329 326 338 349 40 345 358 66 350 353 263 255 276 178 225 171 92 166 249 239 134 237 309 84 284 23 41 52 82 27 248 122 294 306 265 305 15 29 71 29
339 331 321 317 320 325 331 341 37 121 336 324 321 350 345 277 284 181 198 195 186 66 311 322 6 359 19 20 350 43 46 352 8 6 233 155 50 232 260 272 253 299 3 22 32
338 333 323 315 288 327 338 49 106 345 339 327 340 328 74 2 358 320 61 279 243 89 86 267 333 30 335 119 245 34 114 156 256 218 255 128 195 247 196 198 307 328 334 342 8
338 348 3 143 30 359 355 65 203 26 322 310 331 33 343 353 68 26 11 24 22 122 169 128 302 337 21 18 97 321 4 201 160 2 52 288 347 319 248 344 358 327 342 332 325
338 347 48 110 21 351 68 235 260 306 351 332 49 85 346 316 34 20 4 358 38 89 149 170 354 0 318 41 28 103 271 5 10 1 317 307 273 239 268 240 337 321 339 333 324
339 339 332 197 341 5 110 240 281 318 323 297 300 248 242 332 11 336 302 340 27 342 50 125 113 279 84 86 280 4 27 19 115 126 170 286 279 250 264 264 305 293 330 322 315
350 342 156 165 1 28 126 236 317 309 340 281 217 211 171 95 292 300 259 275 354 274 241 35 137 195 250 279 291 165 109 112 100 300 240 175 266 274 266 312 259 293 315 307 305
336 294 358 252 110 334 313 301 282 307 311 356 312 295 225 153 341 194 8 19 28 55 71 222 6 11 350 357 2 91 101 136 109 77 231 181 268 215 334 332 296 289 305 311 287
337 344 338 58 79 112 1 296 318 315 278 345 276 348 10 337 272 314 343 17 31 80 54 94 99 149 192 221 236 297 305 313 132 150 237 226 273 267 263 271 281 283 281 289 284
322 300 358 318 339 343 257 290 338 1 343 345 328 29 237 26 8 44 6 331 29 29 37 93 198 193 227 241 231 246 287 284 235 234 209 287 217 264 276 280 288 292 296 290 284
288 340 341 302 307 326 355 33 9 332 253 336 10 355 55 113 151 323 23 32 261 331 46 20 260 215 262 258 266 270 265 257 247 263 267 282 279 236 303 294 297 302 314 322 300
223 250 287 296 339 14 219 1 316 354 302 336 300 273 297 209 196 211 237 242 232 236 233 193 158 145 274 252 328 307 225 190 231 206 191 243 240 324 306 295 282 300 304 306 296